Weather in Obertin

Ukraine / Ivano-Frankovsk District     48°41′21″N   25°10′11″E
temp.,
°C
wind,
m/s
gust,
m/s
humid.,
%
clouds,
%
prec.,
mm/h
press.,
hPa
HPBL,
m
23 may, mon
mon2300:00+9wnw3792100 0.1 1011212
03:00+8wnw4109697 0.4 1012314
06:00+9wnw5119499 0.8 1011478
09:00+9nw5889100 0.9 1012662
12:00+10nw478895 0.4 1013660
15:00+14nw567253 0.7 10131018
18:00+14nnw556491 0.1 10121207
21:00+10nw22845 0.1 101313
24 may, tue
tue2400:00+8w11875 0.0 101410
03:00+7wnw11882 0.0 101410
06:00+7ssw11901 0.0 101410
09:00+13se33704 0.0 1014444
12:00+18se455352 0.0 10131284
15:00+20se554736 0.0 10121712
18:00+20se56515 0.0 10121303
21:00+15ese4969100 0.0 1013170
25 may, wed
wed2500:00+14se4106464 0.0 1014290
03:00+10ese34816 0.0 101575
06:00+9ese358797 0.0 101596
09:00+15se4671100 0.0 1015392
12:00+20se455696 0.0 1014854
15:00+24se334730 0.0 10131181
18:00+24sse445229 0.1 10131388
21:00+19sse337649 0.1 101243
26 may, thu
thu2600:00+15nw51198100 2.8 1015451
03:00+14wnw51195100 3.4 1016515
06:00+13nw51096100 0.0 1017442
09:00+15nw698134 0.0 1019675
12:00+20nw685513 0.0 10191370
15:00+22nw6845100 0.0 10181918
18:00+21nnw455156 0.0 10181212
21:00+16wnw116893 0.0 101911
27 may, fri
fri2700:00+17w1165100 0.0 101911
03:00+16wnw2369100 0.0 101971
06:00+15wnw117381 0.0 101918
09:00+18wnw236425 0.0 1019524
12:00+21w23522 0.0 10171387
15:00+24s254888 0.0 10141727
18:00+23w375664 0.0 1012724
21:00+18sw410725 0.0 1011194